Sterling, IL

11:29 AM CDT on May 27, 2018 (GMT -0500)
Whiteside County-Bittorf

Weather History for KSQI - March, 2014

Change the Weather History Date:

Monday, March 3, 2014

  Actual Average Record
Temperature  
Mean Temperature 2 °F -  
Max Temperature 14 °F 36 °F 48 °F (2018)
Min Temperature -9 °F 21 °F -9 °F (2014)
Degree Days  
Heating Degree Days 62    
Moisture  
Dew Point -8 °F    
Average Humidity 60    
Maximum Humidity 85    
Minimum Humidity 44    
Precipitation  
Precipitation 0.00 in - - ()
Sea Level Pressure  
Sea Level Pressure 30.45 in    
Wind  
Wind Speed 5 mph (NNW)    
Max Wind Speed 12 mph    
Max Gust Speed -    
Visibility 10 miles    
Events      
Averages and records for this station are not official NWS values.
T = Trace of Precipitation, MM = Missing Value Source: NWS Daily Summary

Daily Weather History Graph

Daily Weather History Graph

Search for Another Location

Airport or City:

Astronomy

Mar. 03, 2014 Rise Set
Actual Time 6:30 AM CST 5:51 PM CST
Civil Twilight 6:02 AM CST 6:19 PM CST
Nautical Twilight 5:30 AM CST 6:51 PM CST
Astronomical Twilight 4:58 AM CST 7:23 PM CST
Moon 7:36 AM CST (3/3) 8:57 PM CST (3/3)
Length of Visible Light 12h 16m
Length of Day
11h 21m
Waxing Crescent, 8% of the Moon is Illuminated
Mar 3
Waxing Crescent
Mar 8
First Quarter
Mar 16
Full
Mar 23
Last Quarter
Mar 30
New

Hourly Weather History & Observations

Time (CST) Temp. Windchill Dew Point Humidity Pressure Visibility Wind Dir Wind Speed Gust Speed Precip Events Conditions
12:15 AM -0.4 °F -14.7 °F -14.8 °F 51% 30.45 in 10.0 mi North 8.1 mph - N/A   Clear
12:35 AM -2.2 °F -15.6 °F -16.6 °F 50% 30.45 in 10.0 mi North 6.9 mph - N/A   Clear
12:55 AM -2.2 °F -18.9 °F -16.6 °F 50% 30.45 in 10.0 mi North 10.4 mph - N/A   Clear
1:15 AM -2.2 °F -18.9 °F -16.6 °F 50% 30.46 in 10.0 mi North 10.4 mph - N/A   Clear
1:35 AM -2.2 °F -19.9 °F -16.6 °F 50% 30.46 in 10.0 mi North 11.5 mph - N/A   Clear
1:55 AM -4.0 °F -19.0 °F -16.6 °F 55% 30.46 in 10.0 mi North 8.1 mph - N/A   Clear
2:15 AM -4.0 °F -17.8 °F -16.6 °F 55% 30.46 in 10.0 mi North 6.9 mph - N/A   Clear
2:35 AM -5.8 °F -21.2 °F -16.6 °F 60% 30.45 in 10.0 mi North 8.1 mph - N/A   Clear
2:55 AM -5.8 °F -21.2 °F -16.6 °F 60% 30.45 in 10.0 mi North 8.1 mph - N/A   Clear
3:15 AM -5.8 °F -18.4 °F -16.6 °F 60% 30.45 in 10.0 mi North 5.8 mph - N/A   Clear
3:35 AM -5.8 °F -16.7 °F -18.4 °F 55% 30.45 in 10.0 mi North 4.6 mph - N/A   Clear
3:55 AM -5.8 °F -18.4 °F -18.4 °F 55% 30.45 in 10.0 mi North 5.8 mph - N/A   Clear
4:15 AM -5.8 °F - -18.4 °F 55% 30.45 in 10.0 mi Calm Calm - N/A   Clear
4:35 AM -7.6 °F -16.5 °F -20.2 °F 54% 30.46 in 10.0 mi North 3.5 mph - N/A   Clear
4:55 AM -7.6 °F -16.5 °F -18.4 °F 59% 30.47 in 10.0 mi North 3.5 mph - N/A   Clear
5:15 AM -7.6 °F -16.5 °F -18.4 °F 59% 30.47 in 10.0 mi North 3.5 mph - N/A   Clear
5:35 AM -7.6 °F -18.8 °F -18.4 °F 59% 30.47 in 10.0 mi North 4.6 mph - N/A   Clear
5:55 AM -9.4 °F - -18.4 °F 65% 30.47 in 10.0 mi Calm Calm - N/A   Clear
6:15 AM -9.4 °F - -18.4 °F 65% 30.48 in 10.0 mi Calm Calm - N/A   Clear
6:35 AM -9.4 °F - -20.2 °F 59% 30.48 in 10.0 mi Calm Calm - N/A   Clear
6:55 AM -7.6 °F - -16.6 °F 65% 30.48 in 10.0 mi Calm Calm - N/A   Clear
7:15 AM -7.6 °F - -16.6 °F 65% 30.49 in 10.0 mi Calm Calm - N/A   Clear
7:35 AM -5.8 °F -14.5 °F -16.6 °F 60% 30.50 in 10.0 mi WNW 3.5 mph - N/A   Clear
7:55 AM -4.0 °F -12.4 °F -14.8 °F 60% 30.50 in 10.0 mi WNW 3.5 mph - N/A   Clear
8:15 AM -2.2 °F - -14.8 °F 55% 30.50 in 10.0 mi Calm Calm - N/A   Clear
8:35 AM -0.4 °F -12.0 °F -13.0 °F 55% 30.50 in 10.0 mi NNE 5.8 mph - N/A   Clear
8:55 AM -0.4 °F -13.4 °F -13.0 °F 55% 30.50 in 10.0 mi NE 6.9 mph - N/A   Clear
9:15 AM 1.4 °F - -11.2 °F 56% 30.52 in 10.0 mi Calm Calm - N/A   Clear
9:35 AM 1.4 °F - -11.2 °F 56% 30.52 in 10.0 mi Calm Calm - N/A   Clear
9:55 AM 1.4 °F - -14.8 °F 47% 30.52 in 10.0 mi Calm Calm - N/A   Clear
10:15 AM 6.8 °F - -7.6 °F 52% 30.53 in 10.0 mi Calm Calm - N/A   Clear
10:35 AM 8.6 °F 2.0 °F -7.6 °F 48% 30.53 in 10.0 mi WNW 3.5 mph - N/A   Clear
10:55 AM 10.4 °F - -7.6 °F 44% 30.52 in 10.0 mi Calm Calm - N/A   Clear
11:15 AM 10.4 °F - -7.6 °F 44% 30.53 in 10.0 mi Calm Calm - N/A   Clear
11:35 AM 10.4 °F - -5.8 °F 48% 30.52 in 10.0 mi Calm Calm - N/A   Clear
11:55 AM 10.4 °F 4.0 °F -4.0 °F 52% 30.52 in 10.0 mi West 3.5 mph - N/A   Clear
12:15 PM 8.6 °F 2.0 °F -2.2 °F 62% 30.50 in 10.0 mi SSE 3.5 mph - N/A   Clear
12:35 PM 12.2 °F 4.3 °F -0.4 °F 57% 30.50 in 10.0 mi West 4.6 mph - N/A   Clear
12:55 PM 12.2 °F 2.9 °F -0.4 °F 57% 30.50 in 10.0 mi West 5.8 mph - N/A   Clear
1:15 PM 12.2 °F 4.3 °F -2.2 °F 53% 30.50 in 10.0 mi West 4.6 mph - N/A   Clear
1:35 PM 12.2 °F 4.3 °F -2.2 °F 53% 30.49 in 10.0 mi WSW 4.6 mph - N/A   Clear
1:55 PM 12.2 °F 6.1 °F -0.4 °F 57% 30.49 in 10.0 mi West 3.5 mph - N/A   Clear
2:15 PM 12.2 °F 6.1 °F -2.2 °F 53% 30.48 in 10.0 mi WNW 3.5 mph - N/A   Clear
2:35 PM 14.0 °F - -0.4 °F 53% 30.48 in 10.0 mi Calm Calm - N/A   Clear
2:55 PM 12.2 °F 4.3 °F -0.4 °F 57% 30.48 in 10.0 mi West 4.6 mph - N/A   Clear
3:15 PM 12.2 °F 2.9 °F -0.4 °F 57% 30.48 in 10.0 mi WSW 5.8 mph - N/A   Clear
3:35 PM 12.2 °F 4.3 °F -0.4 °F 57% 30.47 in 10.0 mi West 4.6 mph - N/A   Clear
3:55 PM 10.4 °F - -0.4 °F 62% 30.46 in 10.0 mi Calm Calm - N/A   Clear
4:15 PM 12.2 °F - -0.4 °F 57% 30.46 in 10.0 mi Calm Calm - N/A   Clear
4:35 PM 10.4 °F 2.2 °F -2.2 °F 57% 30.46 in 10.0 mi West 4.6 mph - N/A   Clear
4:55 PM 10.4 °F - -0.4 °F 62% 30.46 in 10.0 mi Calm Calm - N/A   Clear
5:15 PM 8.6 °F - -2.2 °F 62% 30.44 in 10.0 mi Calm Calm - N/A   Clear
5:35 PM 8.6 °F - -2.2 °F 62% 30.43 in 10.0 mi Calm Calm - N/A   Clear
5:55 PM 6.8 °F - -2.2 °F 67% 30.43 in 10.0 mi Calm Calm - N/A   Clear
6:15 PM 6.8 °F - -2.2 °F 67% 30.42 in 10.0 mi Calm Calm - N/A   Clear
6:35 PM 6.8 °F - -2.2 °F 67% 30.42 in 10.0 mi Calm Calm - N/A   Clear
6:55 PM -0.4 °F -8.3 °F -11.2 °F 60% 30.41 in 10.0 mi ESE 3.5 mph - N/A   Clear
7:15 PM 1.4 °F -11.3 °F -7.6 °F 66% 30.39 in 10.0 mi ESE 6.9 mph - N/A   Clear
7:35 PM 3.2 °F -7.8 °F -2.2 °F 78% 30.38 in 10.0 mi SE 5.8 mph - N/A   Mostly Cloudy
7:55 PM 6.8 °F -2.0 °F 1.4 °F 79% 30.38 in 10.0 mi SSE 4.6 mph - N/A   Overcast
8:15 PM 6.8 °F - -0.4 °F 72% 30.38 in 10.0 mi Calm Calm - N/A   Overcast
8:35 PM 6.8 °F -2.0 °F 3.2 °F 85% 30.37 in 10.0 mi SE 4.6 mph - N/A   Scattered Clouds
8:55 PM 6.8 °F -0.1 °F -2.2 °F 67% 30.37 in 10.0 mi SE 3.5 mph - N/A   Clear
9:15 PM 6.8 °F - -0.4 °F 72% 30.38 in 10.0 mi Calm Calm - N/A   Clear
9:35 PM 6.8 °F -0.1 °F -0.4 °F 72% 30.37 in 10.0 mi SSE 3.5 mph - N/A   Partly Cloudy
9:55 PM 8.6 °F 0.1 °F 1.4 °F 73% 30.35 in 10.0 mi SE 4.6 mph - N/A   Partly Cloudy
10:15 PM 8.6 °F 0.1 °F 1.4 °F 73% 30.35 in 10.0 mi SSE 4.6 mph - N/A   Mostly Cloudy
10:35 PM 8.6 °F 2.0 °F 1.4 °F 73% 30.35 in 10.0 mi SSE 3.5 mph - N/A   Partly Cloudy
10:55 PM 8.6 °F 0.1 °F 1.4 °F 73% 30.35 in 10.0 mi SSE 4.6 mph - N/A   Clear
11:15 PM 8.6 °F - 1.4 °F 73% 30.35 in 10.0 mi Calm Calm - N/A   Clear
11:35 PM 8.6 °F - -0.4 °F 67% 30.36 in 10.0 mi Calm Calm - N/A   Clear
11:55 PM 10.4 °F - 1.4 °F 67% 30.36 in 10.0 mi Calm Calm - N/A   Clear